[[{"header":{"parameterUnit":"m.s-1","parameterCategory":1,"la1":30.2991,"la2":30.254,"lo1":-89.0895,"lo2":-89.0444,"dx":0.0017,"dy":0.0017,"nx":28,"ny":28,"refTime":"2022-11-05T21:00:00:Z","depth":0,"parameterNumber":2,"parameterNumberName":"U-component_of_WINDS"},"data":[0,0,0,0,0,0,0,0,0,0,0,0,0,0,0,0,0,0,0,0,0,0,0,0,0,0,0,0,0,0,0,0,0,0,0,0,0,0,0,0,0,0,0,0,0,0,0,0,0,0,0,0,0,0,0,0,0,0,-0.3881,-0.3882,0,-0.3923,-0.3924,-0.3924,-0.3896,-0.3894,-0.3893,-0.3892,-0.394,-0.3942,-0.3944,0,0,0,0,0,0,0,0,0,0,0,0,0,-0.3781,-0.3783,-0.3881,-0.3882,-0.3882,-0.3923,-0.3924,-0.3924,-0.3896,-0.3894,-0.3893,-0.3891,-0.3939,-0.3942,-0.3945,0,0,0,0,0,0,0,0,0,0,0,0,0,-0.3824,-0.3784,-0.3881,-0.3873,-0.3873,-0.3923,-0.3924,-0.3924,-0.3896,-0.3894,-0.3892,-0.389,-0.3938,-0.3941,-0.3945,-0.4007,0,0,-0.3956,-0.3958,0,0,0,0,0,0,0,0,-0.3822,-0.3828,-0.3874,-0.3874,-0.3873,-0.3902,-0.3906,-0.3952,-0.3897,-0.3887,-0.3892,-0.389,-0.3929,-0.3933,-0.3946,-0.4009,-0.4011,-0.3957,-0.3959,-0.3961,-0.3962,0,0,0,0,0,0,0,-0.3819,-0.3826,-0.3898,-0.3874,-0.3874,-0.3869,-0.3873,-0.3914,-0.3919,-0.3888,-0.3886,-0.3891,-0.3929,-0.3942,-0.3947,-0.4012,-0.3957,-0.396,-0.3962,-0.3964,-0.413,-0.4132,0,0,0,0,0,0,-0.3816,-0.3824,-0.3897,-0.3899,-0.3842,-0.3872,-0.3876,-0.3895,-0.3918,-0.392,-0.3893,-0.389,-0.3937,-0.3942,-0.3948,-0.4024,-0.3961,-0.3964,-0.3966,-0.4128,-0.4131,-0.4133,0,0,0,0,0,0,-0.3814,-0.3823,-0.3895,-0.3861,-0.387,-0.3876,-0.3897,-0.3897,-0.391,-0.3922,-0.3923,-0.3906,-0.3935,-0.3943,-0.3993,-0.4025,-0.3966,-0.3969,-0.4125,-0.4129,-0.4132,-0.4175,0,0,0,0,0,0,-0.3811,-0.3822,-0.3845,-0.3862,-0.3872,-0.3938,-0.3899,-0.3899,-0.3916,-0.3912,-0.3934,-0.3936,-0.3934,-0.3987,-0.3996,-0.4029,-0.3972,-0.4123,-0.4127,-0.4131,-0.4171,-0.4179,-0.4186,0,0,0,0,0,-0.3808,-0.3856,-0.3846,-0.3855,-0.39,-0.394,-0.3945,-0.3941,-0.3919,-0.3943,-0.395,-0.3935,-0.4019,-0.3993,-0.4003,-0.4037,-0.4121,-0.4126,-0.4131,-0.4167,-0.4177,-0.4186,0,0,0,0,0,0,-0.3845,-0.3858,-0.3848,-0.3902,-0.392,-0.3935,-0.3965,-0.3952,-0.3978,-0.3974,-0.3969,-0.3974,-0.4027,-0.4036,-0.4006,-0.4099,-0.4067,-0.4074,-0.4091,-0.4101,-0.4109,-0.4107,-0.3975,0,0,0,0,0,-0.386,-0.3889,-0.3899,-0.3947,-0.3956,-0.3959,-0.3976,-0.3971,-0.399,-0.3998,-0.4008,-0.4029,-0.4059,-0.408,-0.4109,-0.4171,-0.4176,-0.4199,-0.4207,-0.4213,-0.4221,-0.4256,-0.4267,-0.4149,-0.4149,-0.4149,0,0,-0.3891,-0.3901,-0.3921,-0.3955,-0.3968,-0.4,-0.3965,-0.4001,-0.4026,-0.4003,-0.4051,-0.406,-0.4082,-0.4138,-0.4163,-0.4148,-0.4254,-0.422,-0.4225,-0.4229,-0.4262,-0.4273,-0.4283,-0.4153,-0.4152,-0.4151,0,0,-0.3964,-0.3973,-0.4015,-0.4028,-0.4047,-0.4048,-0.4058,-0.4075,-0.4079,-0.4126,-0.4111,-0.414,-0.4193,-0.421,-0.4225,-0.4303,-0.4292,-0.4313,-0.4356,-0.4389,-0.4399,-0.4407,-0.4437,-0.4448,-0.4319,-0.4319,-0.4319,0,-0.4,-0.4047,-0.4038,-0.4075,-0.4091,-0.407,-0.4113,-0.4127,-0.4155,-0.4168,-0.4149,-0.4215,-0.4228,-0.4289,-0.4308,-0.432,-0.4333,-0.4312,-0.4398,-0.4406,-0.4414,-0.4442,-0.4453,-0.4322,-0.4322,-0.4321,-0.4321,0,-0.4092,-0.4124,-0.4155,-0.4182,-0.4201,-0.4241,-0.424,-0.4261,-0.4254,-0.4257,-0.4307,-0.4321,-0.4353,-0.4367,-0.4361,-0.4427,-0.4417,-0.4398,-0.4366,-0.4428,-0.4455,-0.4465,-0.4326,-0.4325,-0.4324,-0.4323,0,0,-0.4193,-0.4212,-0.4224,-0.4236,-0.4255,-0.4281,-0.432,-0.4349,-0.4369,-0.4388,-0.4423,-0.4467,-0.445,-0.4467,-0.4463,-0.4492,-0.4556,-0.447,-0.447,-0.4488,-0.4632,-0.4648,-0.4661,-0.4546,-0.4548,-0.455,-0.4631,0,-0.4269,-0.4335,-0.4328,-0.4392,-0.4423,-0.4403,-0.4437,-0.4453,-0.4457,-0.4485,-0.449,-0.4522,-0.4496,-0.4506,-0.4534,-0.4542,-0.4585,-0.4535,-0.4581,-0.4582,-0.4579,-0.4674,-0.4692,-0.4767,-0.4641,-0.4643,-0.4644,0,-0.4367,-0.4389,-0.4456,-0.447,-0.4483,-0.4513,-0.454,-0.4566,-0.4585,-0.4585,-0.4604,-0.4595,-0.4635,-0.46,-0.4658,-0.4624,-0.4642,-0.4648,-0.4651,-0.4658,-0.4619,-0.4686,-0.4791,-0.4804,-0.466,-0.4659,-0.4658,0,-0.4437,-0.4483,-0.4529,-0.4539,-0.4557,-0.4579,-0.4588,-0.4603,-0.4622,-0.4645,-0.4658,-0.4686,-0.4703,-0.4726,-0.4724,-0.4698,-0.4784,-0.4748,-0.4788,-0.4788,-0.481,-0.4809,-0.4922,-0.4816,-0.4816,-0.4815,-0.4815,0,-0.4524,-0.4567,-0.456,-0.459,-0.4637,-0.4628,-0.4675,-0.4681,-0.4695,-0.4727,-0.471,-0.474,-0.4735,-0.4765,-0.4764,-0.4813,-0.482,-0.4824,-0.4824,-0.4827,-0.4827,-0.4841,-0.4837,-0.4818,-0.4818,-0.4817,-0.4817,0,-0.4612,-0.4609,-0.4659,-0.467,-0.4674,-0.4708,-0.4719,-0.4747,-0.4748,-0.4788,-0.4797,-0.48,-0.4835,-0.4834,-0.4874,-0.4874,-0.4935,-0.4927,-0.4928,-0.4928,-0.4969,-0.4966,-0.5097,-0.5115,-0.4995,-0.4996,-0.4997,0,-0.467,-0.4702,-0.4716,-0.4734,-0.4744,-0.4774,-0.4792,-0.4784,-0.4804,-0.4827,-0.4853,-0.4885,-0.4911,-0.4968,-0.4975,-0.5006,-0.5001,-0.5044,-0.5005,-0.5008,-0.5005,-0.5004,-0.5008,-0.5053,-0.5054,-0.5055,-0.5056,0,-0.4773,-0.477,-0.4795,-0.4821,-0.4842,-0.4863,-0.4881,-0.4898,-0.4892,-0.4915,-0.4949,-0.4969,-0.5009,-0.5043,-0.5072,-0.5083,-0.507,-0.5068,-0.5079,-0.5085,-0.5085,-0.5088,-0.4952,-0.5066,-0.5065,-0.5064,-0.5064,-0.5063,-0.4849,-0.4877,-0.4891,-0.4921,-0.4933,-0.4951,-0.4978,-0.4982,-0.501,-0.504,-0.5034,-0.5073,-0.5091,-0.5128,-0.5141,-0.5173,-0.5158,-0.5174,-0.5179,-0.5183,-0.5189,-0.5077,-0.5178,-0.5178,-0.5177,-0.5177,-0.5177,0,-0.4954,-0.4962,-0.4989,-0.5014,-0.5038,-0.502,-0.5039,-0.5061,-0.5095,-0.5111,-0.5136,-0.5176,-0.5208,-0.5217,-0.5249,-0.5272,-0.5268,-0.5281,-0.5281,-0.5284,-0.5199,-0.5188,-0.5285,-0.5285,-0.5285,-0.5285,-0.5285,-0.5285,-0.5012,-0.5059,-0.5057,-0.511,-0.5117,-0.5154,-0.5167,-0.5183,-0.5196,-0.5241,-0.5267,-0.5271,-0.5286,-0.5318,-0.5347,-0.5349,-0.5363,-0.5379,-0.5379,-0.5301,-0.529,-0.528,-0.5269,-0.5382,-0.5382,-0.5462,-0.5463,-0.5463]},{"header":{"parameterUnit":"m.s-1","parameterCategory":1,"la1":30.2991,"la2":30.254,"lo1":-89.0895,"lo2":-89.0444,"dx":0.0017,"dy":0.0017,"nx":28,"ny":28,"refTime":"2022-11-05T21:00:00:Z","depth":0,"parameterNumber":3,"parameterNumberName":"V-component_of_WINDS"},"data":[0,0,0,0,0,0,0,0,0,0,0,0,0,0,0,0,0,0,0,0,0,0,0,0,0,0,0,0,0,0,0,0,0,0,0,0,0,0,0,0,0,0,0,0,0,0,0,0,0,0,0,0,0,0,0,0,0,0,-0.7898,-0.7898,0,-0.7903,-0.7903,-0.7903,-0.7909,-0.7909,-0.7909,-0.7909,-0.7912,-0.7912,-0.7912,0,0,0,0,0,0,0,0,0,0,0,0,0,-0.789,-0.7891,-0.7898,-0.7898,-0.7898,-0.7903,-0.7903,-0.7903,-0.7909,-0.7909,-0.7909,-0.7909,-0.7912,-0.7912,-0.7912,0,0,0,0,0,0,0,0,0,0,0,0,0,-0.7894,-0.7891,-0.7898,-0.7901,-0.7902,-0.7903,-0.7903,-0.7903,-0.7909,-0.7909,-0.7909,-0.7909,-0.7912,-0.7912,-0.7912,-0.7909,0,0,-0.7912,-0.7912,0,0,0,0,0,0,0,0,-0.7894,-0.7895,-0.7901,-0.7901,-0.7902,-0.7906,-0.7902,-0.7905,-0.7909,-0.7906,-0.7909,-0.7909,-0.7909,-0.791,-0.791,-0.7909,-0.7909,-0.7912,-0.7912,-0.7912,-0.7912,0,0,0,0,0,0,0,-0.7894,-0.7894,-0.79,-0.7901,-0.7901,-0.7902,-0.7903,-0.7902,-0.7907,-0.7906,-0.7907,-0.7908,-0.791,-0.791,-0.791,-0.7909,-0.7912,-0.7912,-0.7912,-0.7912,-0.7907,-0.7907,0,0,0,0,0,0,-0.7893,-0.7894,-0.7899,-0.79,-0.7898,-0.7902,-0.7903,-0.7904,-0.7907,-0.7908,-0.7907,-0.7908,-0.791,-0.791,-0.791,-0.7908,-0.7912,-0.7912,-0.7912,-0.7907,-0.7907,-0.7907,0,0,0,0,0,0,-0.7893,-0.7894,-0.7899,-0.7897,-0.7898,-0.7902,-0.7903,-0.7904,-0.7905,-0.7908,-0.7908,-0.7907,-0.791,-0.7911,-0.791,-0.7908,-0.7912,-0.7912,-0.7907,-0.7907,-0.7907,-0.7902,0,0,0,0,0,0,-0.7893,-0.7894,-0.7893,-0.7897,-0.7898,-0.7899,-0.7903,-0.7904,-0.7905,-0.7906,-0.7908,-0.7908,-0.7911,-0.791,-0.791,-0.7908,-0.7912,-0.7907,-0.7907,-0.7907,-0.7902,-0.7902,-0.7901,0,0,0,0,0,-0.7893,-0.7891,-0.7893,-0.7894,-0.7897,-0.7899,-0.7899,-0.7903,-0.7905,-0.7904,-0.7906,-0.7908,-0.7908,-0.791,-0.791,-0.7908,-0.7907,-0.7907,-0.7907,-0.7903,-0.7902,-0.7901,0,0,0,0,0,0,-0.7885,-0.7891,-0.7894,-0.7893,-0.7896,-0.79,-0.7899,-0.7902,-0.7903,-0.7903,-0.7906,-0.7907,-0.7906,-0.7907,-0.7908,-0.7906,-0.7908,-0.7908,-0.7905,-0.7904,-0.7904,-0.7903,-0.7912,0,0,0,0,0,-0.7883,-0.7885,-0.789,-0.7889,-0.789,-0.7894,-0.7895,-0.7898,-0.79,-0.79,-0.7902,-0.7904,-0.7904,-0.7904,-0.7905,-0.7903,-0.7903,-0.7902,-0.7901,-0.7901,-0.79,-0.79,-0.7899,-0.7906,-0.7906,-0.7906,0,0,-0.7879,-0.7883,-0.7884,-0.7887,-0.789,-0.789,-0.7895,-0.7895,-0.7896,-0.79,-0.79,-0.7902,-0.7903,-0.7902,-0.7902,-0.7903,-0.7899,-0.79,-0.79,-0.79,-0.7899,-0.7899,-0.7898,-0.7906,-0.7906,-0.7906,0,0,-0.7873,-0.7876,-0.7876,-0.7879,-0.7883,-0.7886,-0.7886,-0.789,-0.7891,-0.7891,-0.7895,-0.7895,-0.7896,-0.7897,-0.7898,-0.7894,-0.7896,-0.7894,-0.789,-0.789,-0.789,-0.7889,-0.7888,-0.7887,-0.7893,-0.7893,-0.7893,0,-0.7868,-0.787,-0.7875,-0.7876,-0.7878,-0.7883,-0.7883,-0.7885,-0.7888,-0.7889,-0.789,-0.7892,-0.7893,-0.7893,-0.7892,-0.7893,-0.7892,-0.7893,-0.7889,-0.7889,-0.7889,-0.7887,-0.7887,-0.7893,-0.7893,-0.7893,-0.7893,0,-0.7864,-0.7865,-0.7865,-0.7869,-0.7871,-0.7871,-0.7876,-0.7877,-0.7879,-0.7882,-0.7882,-0.7885,-0.7886,-0.7886,-0.7888,-0.7886,-0.7887,-0.7889,-0.7891,-0.7888,-0.7887,-0.7886,-0.7893,-0.7893,-0.7893,-0.7893,0,0,-0.7852,-0.786,-0.786,-0.7863,-0.7868,-0.7869,-0.7869,-0.7872,-0.7873,-0.7875,-0.7875,-0.7876,-0.7879,-0.788,-0.7882,-0.7882,-0.7879,-0.7884,-0.7884,-0.7883,-0.7877,-0.7875,-0.7875,-0.788,-0.788,-0.788,-0.7877,0,-0.7846,-0.7849,-0.7854,-0.7855,-0.7856,-0.7862,-0.7862,-0.7865,-0.7868,-0.787,-0.7872,-0.7873,-0.7876,-0.7877,-0.7877,-0.7879,-0.7878,-0.7879,-0.788,-0.788,-0.788,-0.7874,-0.7872,-0.7869,-0.7877,-0.7876,-0.7876,0,-0.784,-0.7844,-0.7845,-0.7851,-0.7852,-0.7853,-0.7856,-0.7857,-0.7861,-0.7863,-0.7865,-0.7868,-0.7868,-0.7871,-0.7872,-0.7873,-0.7874,-0.7875,-0.7875,-0.7875,-0.7878,-0.7874,-0.7868,-0.7868,-0.7876,-0.7876,-0.7876,0,-0.7832,-0.7837,-0.7839,-0.784,-0.7847,-0.7848,-0.7851,-0.7854,-0.7856,-0.7859,-0.786,-0.7862,-0.7863,-0.7864,-0.7868,-0.787,-0.7869,-0.7871,-0.787,-0.787,-0.7869,-0.7869,-0.7863,-0.787,-0.787,-0.787,-0.787,0,-0.7826,-0.7826,-0.7835,-0.7836,-0.7837,-0.7843,-0.7843,-0.7846,-0.785,-0.7851,-0.7856,-0.7857,-0.7861,-0.7863,-0.7865,-0.7866,-0.7866,-0.7868,-0.7868,-0.7867,-0.7867,-0.7868,-0.7868,-0.787,-0.787,-0.787,-0.787,0,-0.7816,-0.7822,-0.7824,-0.7831,-0.7833,-0.7834,-0.7839,-0.784,-0.7844,-0.7846,-0.7846,-0.7852,-0.7854,-0.7858,-0.786,-0.7862,-0.7862,-0.7863,-0.7861,-0.7861,-0.786,-0.786,-0.7854,-0.7854,-0.786,-0.786,-0.786,0,-0.7811,-0.7812,-0.782,-0.7822,-0.7825,-0.7828,-0.783,-0.7836,-0.7838,-0.7843,-0.7843,-0.7846,-0.7848,-0.7851,-0.7854,-0.7857,-0.7858,-0.7856,-0.7858,-0.7858,-0.7858,-0.7858,-0.7858,-0.7855,-0.7855,-0.7855,-0.7855,0,-0.7803,-0.7806,-0.781,-0.7815,-0.7817,-0.7821,-0.7825,-0.7826,-0.7833,-0.7835,-0.7837,-0.7839,-0.7843,-0.7846,-0.7849,-0.7851,-0.7854,-0.7854,-0.7854,-0.7853,-0.7852,-0.7853,-0.786,-0.7854,-0.7854,-0.7854,-0.7854,-0.7854,-0.7796,-0.7797,-0.7803,-0.7807,-0.7811,-0.7815,-0.7817,-0.7821,-0.7824,-0.7828,-0.7831,-0.7834,-0.7838,-0.7843,-0.7845,-0.7847,-0.7848,-0.7848,-0.7848,-0.7848,-0.7847,-0.7852,-0.7847,-0.7847,-0.7847,-0.7847,-0.7847,0,-0.7788,-0.7792,-0.7796,-0.7802,-0.7805,-0.7809,-0.7814,-0.7816,-0.7819,-0.7823,-0.7826,-0.783,-0.7832,-0.7837,-0.784,-0.7841,-0.7842,-0.7841,-0.7841,-0.7842,-0.7846,-0.7846,-0.784,-0.784,-0.784,-0.784,-0.784,-0.784,-0.7784,-0.7786,-0.7791,-0.7796,-0.78,-0.7804,-0.7806,-0.781,-0.7813,-0.7817,-0.782,-0.7824,-0.7828,-0.7832,-0.7834,-0.7836,-0.7836,-0.7835,-0.7837,-0.784,-0.7841,-0.7842,-0.7842,-0.7835,-0.7835,-0.7832,-0.7832,-0.7832]}]]